Terminal Aerodrome Forecast
Issued by NWS Columbia, SC

Current Version | Previous Version | Text Only | Print | Product List | Glossary On
Versions: 1 2 3 4 5 6 7 8 9 10 11 12 13 14 15 16 17 18 19 20 21 22 23 24 25 26 27 28 29 30 31 32 33 34 35 36 37 38 39 40 41 42 43 44 45 46 47 48 49 50
747
FTAK31 PAJN 161144
TAFAGS
TAF
PAGS 161144Z 1612/1712 33003KT P6SM -RA SCT010 BKN035 OVC070
     FM161500 10004KT 6SM -RA SCT005 OVC015
     FM170000 15008KT P6SM -RA OVC025
      AMD LTD TO CLD VIS AND WIND=

USA.gov is the U.S. government's official web portal to all federal, state and local government web resources and services.